This is the latest recevied weather packets stored in our database for station/object KD7CIH. If no packets are shown the sender has not sent any weather packets the latest 10 day(s).
| Time | Temp. | Humidity | Pressure | Rain* | Wind** | Luminosity | Snow |
|---|---|---|---|---|---|---|---|
| 1788136473 | 21.67° C | 35% | 1014.1 hPa | 0 mm | - | - | - |
| 1788136174 | 21.67° C | 34% | 1014 hPa | 0 mm | - | - | - |
| 1788136001 | 21.67° C | 34% | 1014 hPa | 0 mm | - | - | - |
| 1788135573 | 22.22° C | 34% | 1014.1 hPa | 0 mm | - | - | - |
| 1788135273 | 22.22° C | 34% | 1014.1 hPa | 0 mm | - | - | - |
| 1788134976 | 22.22° C | 33% | 1014.1 hPa | 0 mm | - | - | - |
| 1788134673 | 22.22° C | 33% | 1014.1 hPa | 0 mm | - | - | - |
| 1788134373 | 22.22° C | 33% | 1014.1 hPa | 0 mm | - | - | - |
| 1788134073 | 22.22° C | 34% | 1014 hPa | 0 mm | - | - | - |
| 1788133776 | 22.22° C | 34% | 1014.1 hPa | 0 mm | - | - | - |
| 1788133473 | 22.22° C | 34% | 1014 hPa | 0 mm | - | - | - |
| 1788133173 | 22.22° C | 33% | 1014 hPa | 0 mm | - | - | - |
| 1788132874 | 22.22° C | 36% | 1014 hPa | 0 mm | - | - | - |
| 1788132701 | 22.22° C | 36% | 1014 hPa | 0 mm | - | - | - |
| 1788132273 | 22.22° C | 35% | 1013.9 hPa | 0 mm | - | - | - |
| 1788131974 | 22.78° C | 38% | 1013.9 hPa | 0 mm | - | - | - |
| 1788131673 | 22.78° C | 34% | 1013.7 hPa | 0 mm | - | - | - |
| 1788131503 | 22.78° C | 35% | 1013.6 hPa | 0 mm | - | - | - |
| 1788131202 | 22.78° C | 36% | 1013.7 hPa | 0 mm | - | - | - |
| 1788130773 | 22.22° C | 38% | 1013.7 hPa | 0 mm | - | - | - |
| 1788130475 | 22.78° C | 40% | 1013.9 hPa | 0 mm | - | - | - |
| 1788130173 | 22.78° C | 40% | 1013.9 hPa | 0 mm | - | - | - |
| 1788129873 | 22.22° C | 40% | 1013.9 hPa | 0 mm | - | - | - |
| 1788129573 | 22.22° C | 41% | 1014.1 hPa | 0 mm | - | - | - |
| 1788129274 | 22.22° C | 41% | 1014.1 hPa | 0 mm | - | - | - |
* Rain latest hour (hover to see other rain measurements)
** Current wind speed in m/s (hover to see current wind gust speed)